TimePDT,TemperatureF,Dew PointF,Humidity,Sea Level PressureIn,VisibilityMPH,Wind Direction,Wind SpeedMPH,Gust SpeedMPH,PrecipitationIn,Events,Conditions,WindDirDegrees,DateUTC
12:52 AM,77.0,61.0,58,29.82,10.0,SSE,4.6,-,N/A,,Clear,150,2012-10-09 07:52:00
1:52 AM,75.0,62.1,64,29.81,10.0,SSE,10.4,-,N/A,,Clear,160,2012-10-09 08:52:00
2:52 AM,75.0,63.0,66,29.81,10.0,SSE,6.9,-,N/A,,Clear,150,2012-10-09 09:52:00
4:52 AM,70.0,61.0,73,29.82,10.0,Calm,Calm,-,N/A,,Clear,0,2012-10-09 11:52:00
5:52 AM,68.0,60.1,76,29.83,10.0,NNW,4.6,-,N/A,,Clear,340,2012-10-09 12:52:00
6:52 AM,66.9,59.0,76,29.85,10.0,Calm,Calm,-,N/A,,Clear,0,2012-10-09 13:52:00
7:52 AM,71.1,57.9,63,29.86,10.0,North,3.5,-,N/A,,Clear,350,2012-10-09 14:52:00
8:52 AM,77.0,62.1,60,29.88,10.0,Variable,3.5,-,N/A,,Clear,0,2012-10-09 15:52:00
9:52 AM,82.0,57.0,42,29.88,10.0,Variable,3.5,-,N/A,,Clear,0,2012-10-09 16:52:00
10:52 AM,84.9,55.9,37,29.87,10.0,South,8.1,-,N/A,,Clear,180,2012-10-09 17:52:00
11:52 AM,87.1,59.0,39,29.86,10.0,SSE,10.4,-,N/A,,Clear,160,2012-10-09 18:52:00
12:52 PM,90.0,57.9,34,29.83,10.0,SSE,9.2,20.7,N/A,,Clear,160,2012-10-09 19:52:00
1:52 PM,91.9,57.0,31,29.79,10.0,South,13.8,18.4,N/A,,Clear,180,2012-10-09 20:52:00
2:52 PM,93.0,60.1,33,29.78,10.0,SSE,12.7,-,N/A,,Clear,150,2012-10-09 21:52:00
3:52 PM,93.0,61.0,34,29.76,10.0,South,13.8,20.7,N/A,,Clear,180,2012-10-09 22:52:00
4:52 PM,91.0,62.1,38,29.75,10.0,South,11.5,-,0.00,,Partly Cloudy,170,2012-10-09 23:52:00
5:52 PM,89.1,61.0,39,29.75,10.0,South,11.5,-,N/A,Thunderstorm,Clear,180,2012-10-10 00:52:00
6:22 PM,87.8,60.8,40,29.77,10.0,South,9.2,-,N/A,,Clear,180,2012-10-10 01:22:00
7:52 PM,88.0,60.1,39,29.78,10.0,SSW,9.2,-,N/A,,Scattered Clouds,210,2012-10-10 02:52:00
8:52 PM,87.1,61.0,41,29.80,10.0,SSW,16.1,19.6,N/A,,Scattered Clouds,200,2012-10-10 03:52:00
9:52 PM,84.9,61.0,44,29.82,10.0,SSW,11.5,-,N/A,,Clear,210,2012-10-10 04:52:00
10:52 PM,84.0,53.1,34,29.83,10.0,SSW,11.5,-,N/A,,Clear,200,2012-10-10 05:52:00
11:52 PM,81.0,46.0,29,29.83,10.0,SW,8.1,-,N/A,,Clear,230,2012-10-10 06:52:00